Location: Newark
(41.7300°N, 13.7500°E)
Time: 03:35:08
(UTC+00:00)

UWE-3 - Visible Passes

Search period start: 25 November 2020 00:00
Search period end: 05 December 2020 00:00
Orbit: 584 x 683 km, 97.6° (Epoch: 24 November)

Date Brightness Start Highest point End Pass type
(mag) Time Alt. Az. Time Alt. Az. Time Alt. Az.
25 Nov ? 03:48:31 10° NNE 03:52:41 78° ESE 03:56:48 10° S visible
25 Nov ? 16:24:10 10° WSW 16:25:57 12° W 16:27:44 10° WNW visible
26 Nov ? 02:36:08 10° ENE 02:40:11 - SE 02:36:20 10° ENE visible
26 Nov ? 04:10:02 10° N 04:17:40 13° SSW 04:18:10 10° SSW visible
27 Nov ? 02:55:58 10° NE 03:02:31 - SE 02:57:12 15° ENE visible
27 Nov ? 04:31:46 10° N 04:39:59 - SW 04:34:36 30° NW visible
28 Nov ? 03:16:49 10° NNE 03:24:40 - SSE 03:18:15 19° NE visible
28 Nov ? 04:53:45 10° NNW 05:02:09 - SW 04:55:39 18° NW visible
29 Nov ? 03:38:01 10° NNE 03:46:45 - S 03:39:24 20° NNE visible
29 Nov ? 05:16:21 10° NW 05:16:49 11° NW 05:16:49 11° NW visible
29 Nov ? 16:12:44 10° SW 16:15:21 15° W 16:17:55 10° NW visible
30 Nov ? 03:59:26 10° N 04:08:46 - SSW 04:00:38 19° N visible
01 Dec?02:53:16SSE02:53:16SSE02:44:29NEvisible
01 Dec ? 04:21:03 10° N 04:30:44 - SSW 04:21:54 15° N visible
02 Dec?03:15:12SSE03:15:12SSE03:05:48NNEvisible
02 Dec ? 04:42:53 10° NNW 04:43:13 12° NNW 04:43:13 12° NNW visible
03 Dec?03:37:07S03:37:07S03:27:08NNEvisible
03 Dec ? 16:01:36 10° SW 16:04:43 19° W 16:07:48 10° NW visible
04 Dec?03:59:01SSW03:59:01SSW03:48:32NNEvisible
04 Dec ? 16:25:13 10° WSW 16:26:23 11° W 16:27:32 10° WNW visible
